EW9525 Weather Reports


Display with metric or nautical units.
time (UTC)temp
F
wind
direction
speed
MPH
gust
MPH
rain 1hr
in
rain 24hr
in
rain mn
in
humidity
%
barometer
mb
20260509011556 67 280 2.0 4.0 0.00 0.00 0.00 30 1007.6
20260509010049 70 291 1.0 6.0 0.00 0.00 0.00 32 1007.7
20260509004604 71 293 6.0 13.0 0.00 0.00 0.00 26 1007.6
20260509003046 72 286 5.0 12.0 0.00 0.00 0.00 27 1007.6
20260509001544 73 283 7.0 12.0 0.00 0.00 0.00 26 1007.4
20260509000046 73 301 10.0 15.0 0.00 0.00 0.00 25 1007.5
20260508234543 73 238 4.0 10.0 0.00 0.00 0.00 26 1007.5
20260508233044 73 259 10.0 20.0 0.00 0.00 0.00 25 1007.4
20260508231542 75 274 8.0 14.0 0.00 0.00 0.00 26 1007.5
20260508230042 73 283 9.0 16.0 0.00 0.00 0.00 26 1007.7
20260508224541 74 284 7.0 15.0 0.00 0.00 0.00 28 1007.6
20260508223046 75 281 13.0 19.0 0.00 0.00 0.00 26 1007.5
20260508221541 73 268 8.0 12.0 0.00 0.00 0.00 27 1007.7
20260508220039 73 267 7.0 15.0 0.00 0.00 0.00 28 1007.8
20260508214546 75 248 8.0 15.0 0.00 0.00 0.00 26 1007.9
20260508213037 74 274 12.0 17.0 0.00 0.00 0.00 24 1007.9
20260508211535 74 273 6.0 13.0 0.00 0.00 0.00 28 1008.1
20260508210034 72 277 7.0 14.0 0.00 0.00 0.00 29 1008.4
20260508204536 72 294 9.0 13.0 0.00 0.00 0.00 29 1008.4
20260508203031 73 297 5.0 14.0 0.00 0.00 0.00 28 1008.6
20260508201530 74 304 8.0 15.0 0.00 0.00 0.00 27 1008.7
20260508200031 74 281 7.0 12.0 0.00 0.00 0.00 32 1008.9
20260508194527 73 298 6.0 14.0 0.00 0.00 0.00 27 1009.0
20260508193025 73 261 9.0 17.0 0.00 0.00 0.00 32 1009.0
20260508191528 73 278 11.0 18.0 0.00 0.00 0.00 28 1009.1
20260508190026 71 285 9.0 15.0 0.00 0.00 0.00 30 1009.3
20260508184521 70 279 6.0 11.0 0.00 0.00 0.00 34 1009.4
20260508183020 71 271 6.0 17.0 0.00 0.00 0.00 35 1009.5
20260508181518 70 274 12.0 17.0 0.00 0.00 0.00 31 1009.7
20260508180020 70 290 4.0 17.0 0.00 0.00 0.00 33 1009.8
20260508174516 70 304 10.0 19.0 0.00 0.00 0.00 36 1009.9
20260508173013 69 263 4.0 13.0 0.00 0.00 0.00 34 1010.1
20260508171514 68 274 7.0 16.0 0.00 0.00 0.00 33 1010.3
20260508170010 68 278 8.0 15.0 0.00 0.00 0.00 34 1010.4
20260508164508 67 310 6.0 14.0 0.00 0.00 0.00 32 1010.5
20260508163005 67 304 6.0 13.0 0.00 0.00 0.00 34 1010.6
20260508161503 66 291 7.0 12.0 0.00 0.00 0.00 35 1010.5
20260508160003 65 283 7.0 15.0 0.00 0.00 0.00 31 1010.6
20260508154600 65 278 7.0 12.0 0.00 0.00 0.00 34 1010.6
20260508153057 64 259 10.0 15.0 0.00 0.00 0.00 35 1010.7
20260508151555 62 266 8.0 13.0 0.00 0.00 0.00 42 1010.8
20260508150048 59 281 7.0 11.0 0.00 0.00 0.00 45 1010.8
20260508144547 57 278 6.0 10.0 0.00 0.00 0.00 49 1010.7
20260508143057 56 278 6.0 12.0 0.00 0.00 0.00 53 1010.6
20260508141552 54 281 6.0 10.0 0.00 0.00 0.00 56 1010.5
20260508140044 53 289 5.0 9.0 0.00 0.00 0.00 59 1010.5
20260508134542 52 278 5.0 10.0 0.00 0.00 0.00 62 1010.5
20260508133053 52 270 6.0 10.0 0.00 0.00 0.00 61 1010.5
20260508131540 51 269 5.0 8.0 0.00 0.00 0.00 65 1010.4
20260508130036 51 274 5.0 10.0 0.00 0.00 0.00 65 1010.1
20260508124533 51 284 5.0 9.0 0.00 0.00 0.00 65 1009.9
20260508123032 51 283 6.0 11.0 0.00 0.00 0.00 64 1009.7
20260508121551 51 264 6.0 11.0 0.00 0.00 0.00 64 1009.2
20260508120029 51 266 6.0 9.0 0.00 0.00 0.00 65 1008.9
20260508114525 51 276 4.0 10.0 0.00 0.00 0.00 65 1008.8
20260508113024 52 266 6.0 11.0 0.00 0.00 0.00 64 1008.8
20260508111523 53 278 7.0 13.0 0.00 0.00 0.00 63 1008.6
20260508110022 54 269 8.0 15.0 0.00 0.00 0.00 63 1008.6
20260508104525 55 262 9.0 16.0 0.00 0.00 0.00 62 1008.8
20260508103021 56 261 11.0 17.0 0.00 0.00 0.00 64 1008.8
20260508101520 56 259 9.0 15.0 0.00 0.00 0.00 65 1008.7
20260508100021 55 251 7.0 14.0 0.00 0.00 0.00 65 1008.7
20260508094518 56 270 5.0 11.0 0.00 0.00 0.00 66 1008.9
20260508093023 55 258 5.0 10.0 0.00 0.00 0.00 67 1008.9
20260508091516 54 239 5.0 9.0 0.00 0.00 0.00 71 1009.2
20260508090017 53 218 2.0 5.0 0.00 0.00 0.00 74 1009.3
20260508084516 52 219 0.0 9.0 0.00 0.00 0.00 74 1009.3
20260508083041 52 207 3.0 7.0 0.00 0.00 0.00 76 1009.4
20260508081514 49 188 4.0 7.0 0.00 0.00 0.00 80 1009.3
20260508080011 49 191 5.0 8.0 0.00 0.00 0.00 77 1009.1
20260508074507 52 203 2.0 7.0 0.00 0.00 0.00 72 1008.8
20260508073006 53 231 3.0 8.0 0.00 0.00 0.00 70 1008.7
20260508071503 54 235 4.0 7.0 0.00 0.00 0.00 68 1008.9
20260508070004 55 257 6.0 11.0 0.00 0.00 0.00 66 1008.7
20260508064504 55 227 5.0 9.0 0.00 0.00 0.00 67 1008.9
20260508063100 53 279 3.0 6.0 0.00 0.00 0.00 71 1008.8
20260508061559 55 264 5.0 9.0 0.00 0.00 0.00 66 1009.0
20260508054555 56 228 3.0 7.0 0.00 0.00 0.00 63 1009.4
20260508053048 57 261 4.0 9.0 0.00 0.00 0.00 61 1009.3
20260508053017 57 252 4.0 9.0 0.00 0.00 0.00 61 1009.3
20260508051545 57 239 4.0 7.0 0.00 0.00 0.00 61 1009.3
20260508050046 57 238 3.0 8.0 0.00 0.00 0.00 58 1009.3
20260508044541 58 276 5.0 8.0 0.00 0.00 0.00 56 1009.3
20260508043041 61 264 4.0 10.0 0.00 0.00 0.00 51 1009.3
20260508041540 61 224 4.0 7.0 0.00 0.00 0.00 49 1009.1
20260508040039 59 270 2.0 5.0 0.00 0.00 0.00 53 1009.2
20260508034539 57 191 2.0 3.0 0.00 0.00 0.00 56 1009.2
20260508033038 56 193 1.0 3.0 0.00 0.00 0.00 56 1009.2
20260508031538 58 155 2.0 4.0 0.00 0.00 0.00 52 1009.1
20260508030038 60 186 2.0 5.0 0.00 0.00 0.00 47 1009.2
20260508024548 60 183 2.0 3.0 0.00 0.00 0.00 44 1008.9
20260508023038 63 177 2.0 3.0 0.00 0.00 0.00 40 1008.9
20260508021536 64 200 0.0 0.0 0.00 0.00 0.00 36 1008.7
20260508020039 67 260 0.0 0.0 0.00 0.00 0.00 33 1008.6
20260508014536 68 259 0.0 1.0 0.00 0.00 0.00 32 1008.6
20260508013035 68 269 1.0 2.0 0.00 0.00 0.00 34 1008.6